Regional Weather Roundup
Issued by NWS

Home | Current Version | Previous Version | Text Only | Print | Product List | Glossary On
Versions: 1 2 3 4 5 6 7 8 9 10 11 12 13 14 15 16 17 18 19 20 21 22 23 24 25 26 27 28 29 30 31 32 33 34 35 36 37 38 39 40 41 42 43 44 45 46 47 48 49 50
000
ASUS43 KDTX 212210
RWRMI
MICHIGAN HOURLY REGIONAL WEATHER ROUNDUP
NATIONAL WEATHER SERVICE DETROIT/PONTIAC MI
500 PM EST SUN DEC 21 2014

NOTE: "FAIR" INDICATES FEW OR NO CLOUDS BELOW 12,000 FEET WITH NO
SIGNIFICANT WEATHER AND/OR OBSTRUCTION TO VISIBILITY.

MIZ047>049-052>055-059>063-066>070-074>076-081>083-212300-
SOUTHEAST LOWER MICHIGAN

CITY           SKY/WX    TMP DP  RH WIND       PRES   REMARKS
ADRIAN         CLOUDY    32  27  81 S5        30.22S
ALMA           CLOUDY    33  29  86 SE6       30.18S FOG
ANN ARBOR      CLOUDY    33  25  72 SE6       30.21F
BAD AXE        CLOUDY    31  27  82 S3        30.23S
DETROIT CITY   CLOUDY    33  22  63 SE8       30.25S
DETROIT        CLOUDY    32  22  66 E6        30.24F
FLINT          CLOUDY    34  23  64 S6        30.22R
GROSSE ILE     PTCLDY    30  25  80 E3        30.23S
HILLSDALE      CLOUDY    32  27  81 SE7       30.17S
HOWELL         CLOUDY    32  27  81 SE8       30.19F

CITY           SKY/WX    TMP DP  RH WIND       PRES   REMARKS
JACKSON        CLOUDY    32  26  78 SE6       30.18F HAZE
LAMBERTVILLE   CLOUDY    34  27  75 E3        30.23S
LANSING        CLOUDY    33  26  75 SE13      30.18F HAZE
LAPEER         NOT AVBL
MASON          CLOUDY    32  27  82 SE7       30.18F HAZE
MONROE         CLOUDY    32  25  74 E6        30.22S
MT. CLEMENS    MOCLDY    31  26  83 S9        30.22S
PONTIAC        CLOUDY    32  23  69 SE9       30.20S
PORT HOPE        N/A     32  24  72 S5        30.22S
PORT HURON     PTCLDY    30  23  74 S3        30.25S
TRI CITIES     CLOUDY    34  27  75 S7        30.21S
YPSILANTI      CLOUDY    35  23  61 SE8       30.23S
$$
MIZ043>046-050>051-056>058-064>065-071>073-077>080-212300-
SOUTHWEST LOWER MICHIGAN

CITY           SKY/WX    TMP DP  RH WIND       PRES   REMARKS
BATTLE CREEK   PTCLDY    33  24  69 SE6       30.16F
BENTON HARBOR  CLOUDY    35  28  75 SE7       30.13F HAZE
BIG RAPIDS     CLOUDY    32  29  87 SE8       30.13S FOG
COLDWATER      MOCLDY    32  25  75 MISG      30.17R
HOLLAND        CLOUDY    36  28  73 SE8       30.14F
GRAND RAPIDS   MOCLDY    32  25  75 SE8       30.15F
KALAMAZOO      PTCLDY    34  24  67 VRB6      30.16S
MARSHALL       CLOUDY    32  25  75 SE6       30.16S
MUSKEGON       CLOUDY    35  27  72 SE7       30.14S
$$
MIZ016>042-212300-
NORTHERN LOWER MICHIGAN

CITY           SKY/WX    TMP DP  RH WIND       PRES   REMARKS
ALPENA         CLOUDY    31  27  85 S7        30.19S
BEAVER ISLAND  CLOUDY    34  32  92 S5        30.09S FOG
BELLAIRE       CLOUDY    34  29  82 S5        30.14R
CADILLAC       CLOUDY    31  27  85 SE8       30.10S
CHARLEVOIX     CLOUDY    32  30  91 SE9       30.14S FOG
FRANKFORT      CLOUDY    33  30  88 SE12      30.10S
GAYLORD        CLOUDY    30  27  88 S8        30.11S FOG
GRAYLING       CLOUDY    31  28  90 SE6       30.14S FOG
HARBOR SPRINGS CLOUDY    32  29  86 E7        30.12F
HOUGHTON LAKE  CLOUDY    30  26  85 SE6       30.15S FOG
MANISTEE       CLOUDY    34  27  75 SE7       30.11S
OSCODA         CLOUDY    32  27  83 S6        30.20S
PELLSTON       CLOUDY    32  29  88 SE7       30.13S
TRAVERSE CITY  CLOUDY    35  28  75 VRB5      30.11S
$$
MIZ007>008-015-212300-
EASTERN UPPER MICHIGAN

CITY           SKY/WX    TMP DP  RH WIND       PRES   REMARKS
KINROSS        CLOUDY    30  30 100 SE12      30.13S
MACKINAC ISLAN CLOUDY    32  29  89 SE5       30.12S
NEWBERRY       CLOUDY    30  30  99 SE12      30.07F FOG
S. S. MARIE    MIX PCPN  30  26  85 E8        30.12F FOG
$$
MIZ004>006-011>014-085-212300-
CENTRAL UPPER MICHIGAN

CITY           SKY/WX    TMP DP  RH WIND       PRES   REMARKS
MANISTIQUE     DRIZZLE   35  35 100 S12G17    30.05S
ESCANABA       CLOUDY    36  32  87 S7        30.01F
MENOMINEE      CLOUDY    36  30  80 S10       30.00F
SAWYER-GWINN   CLOUDY    32  32 100 S14       29.96S FOG
$$
MIZ001>003-009>011-084-212300-
WESTERN UPPER MICHIGAN

CITY           SKY/WX    TMP DP  RH WIND       PRES   REMARKS
IRON MOUNTAIN  CLOUDY    32  30  92 SE12      29.94F FOG
HOUGHTON       LGT SNOW  32  30  92 SE9       29.89S VSB 1
COPPER HARBOR    N/A     35  30  82 SW13G25   29.91F
IRONWOOD       CLOUDY    34  30  86 SE9       29.79F
$$

ABBREVIATIONS USED IN REMARKS
   TC - TEMPERATURE IN CELSIUS
  WCI - WIND CHILL INDEX
   HX - HEAT INDEX
  VSB - VISIBILITY



USA.gov is the U.S. government's official web portal to all federal, state and local government web resources and services.